Weather History for Rogers, AR

Change the Weather History Date:

Monday, March 11, 2013

  Actual Average Record
Temperature  
Mean Temperature 35 °F -  
Max Temperature 44 °F 52 °F 77 °F (2014)
Min Temperature 27 °F 34 °F 17 °F (1998)
Degree Days  
Heating Degree Days 30    
Moisture  
Dew Point 25 °F    
Average Humidity 75    
Maximum Humidity 96    
Minimum Humidity 40    
Precipitation  
Precipitation 0.00 in - - ()
Sea Level Pressure  
Sea Level Pressure 29.97 in    
Wind  
Wind Speed 14 mph (West)    
Max Wind Speed 18 mph    
Max Gust Speed 25 mph    
Visibility 9 miles    
Events      
Averages and records for this station are not official NWS values.
T = Trace of Precipitation, MM = Missing Value Source: NWS Daily Summary

Daily Weather History Graph

Daily Weather History Graph

Search for Another Location

Airport:

Trip Planner

Search our weather history database for the weather conditions in past years. The results will help you decide how hot, cold, wet, or windy it might be!

Date:

Astronomy

Mar. 11, 2013 Rise Set
Actual Time 7:32 AM CDT 7:20 PM CDT
Civil Twilight 7:06 AM CDT 7:46 PM CDT
Nautical Twilight 6:37 AM CDT 8:16 PM CDT
Astronomical Twilight 6:07 AM CDT 8:46 PM CDT
Moon 7:07 AM CDT (3/11) 7:31 PM CDT (3/11)
Length of Visible Light 12h 39m
Length of Day
11h 47m
Waning Crescent, 0% of the Moon is Illuminated
Mar 11
Waning Crescent
Mar 11
New
Mar 19
First Quarter
Mar 27
Full
Apr 2
Last Quarter

Hourly Weather History & Observations

Time (CDT) Temp. Windchill Dew Point Humidity Pressure Visibility Wind Dir Wind Speed Gust Speed Precip Events Conditions
12:44 AM 28.4 °F 17.0 °F 26.6 °F 93% 29.93 in 5.0 mi West 15.0 mph - N/A   Overcast
12:57 AM 28.9 °F 18.2 °F 27.0 °F 92% 29.94 in 6.0 mi West 13.8 mph - N/A   Overcast
1:04 AM 28.4 °F 16.6 °F 26.6 °F 93% 29.93 in 7.0 mi West 16.1 mph 23.0 mph N/A   Overcast
1:29 AM 28.4 °F 19.1 °F 26.6 °F 93% 29.92 in 4.0 mi WNW 10.4 mph - N/A   Overcast
1:57 AM 28.4 °F 17.0 °F 26.6 °F 93% 29.91 in 7.0 mi WNW 15.0 mph 23.0 mph N/A   Overcast
1:59 AM 28.0 °F 16.5 °F 26.1 °F 92% 29.94 in 8.0 mi WNW 15.0 mph 23.0 mph N/A   Overcast
2:07 AM 28.4 °F 17.0 °F 26.6 °F 93% 29.91 in 9.0 mi WNW 15.0 mph - N/A   Overcast
2:11 AM 28.4 °F 17.0 °F 26.6 °F 93% 29.91 in 10.0 mi WNW 15.0 mph - N/A   Overcast
2:37 AM 28.4 °F 16.2 °F 26.6 °F 93% 29.90 in 7.0 mi WNW 17.3 mph 24.2 mph N/A   Overcast
2:42 AM 28.4 °F 17.5 °F 26.6 °F 93% 29.91 in 9.0 mi WNW 13.8 mph 25.3 mph N/A   Overcast
2:57 AM 27.0 °F 14.3 °F 26.1 °F 96% 29.94 in 10.0 mi West 17.3 mph - N/A   Overcast
3:57 AM 27.0 °F 15.2 °F 25.0 °F 92% 29.96 in 10.0 mi West 15.0 mph - N/A   Overcast
4:57 AM 27.0 °F 16.1 °F 25.0 °F 92% 29.95 in 10.0 mi West 12.7 mph - N/A   Overcast
5:57 AM 27.0 °F 15.2 °F 25.0 °F 92% 29.96 in 10.0 mi West 15.0 mph 19.6 mph N/A   Overcast
7:57 AM 27.0 °F 15.2 °F 24.1 °F 89% 29.96 in 10.0 mi West 15.0 mph - N/A   Overcast
8:57 AM 27.0 °F 15.2 °F 24.1 °F 89% 29.98 in 10.0 mi West 15.0 mph - N/A   Overcast
9:33 AM 28.4 °F 17.0 °F 24.8 °F 86% 29.96 in 10.0 mi West 15.0 mph - N/A   Overcast
9:57 AM 28.9 °F 18.2 °F 25.0 °F 85% 30.01 in 10.0 mi WNW 13.8 mph - N/A   Overcast
10:57 AM 30.9 °F 21.2 °F 26.1 °F 82% 30.01 in 10.0 mi WNW 12.7 mph - N/A   Overcast
11:57 AM 34.0 °F 26.6 °F 27.0 °F 75% 30.00 in 10.0 mi West 9.2 mph - N/A   Overcast
12:57 PM 34.0 °F 23.8 °F 26.1 °F 73% 30.01 in 10.0 mi West 16.1 mph - N/A   Overcast
1:46 PM 37.4 °F 30.3 °F 26.6 °F 65% 29.96 in 10.0 mi West 10.4 mph 16.1 mph N/A   Scattered Clouds
1:57 PM 39.0 °F 32.3 °F 26.1 °F 60% 29.98 in 10.0 mi WSW 10.4 mph 18.4 mph N/A   Scattered Clouds
2:57 PM 41.0 °F 32.2 °F 26.1 °F 55% 29.96 in 10.0 mi West 18.4 mph 21.9 mph N/A   Partly Cloudy
3:57 PM 43.0 °F 35.1 °F 24.1 °F 47% 29.97 in 10.0 mi West 17.3 mph 23.0 mph N/A   Clear
4:57 PM 43.0 °F 35.7 °F 24.1 °F 47% 29.98 in 10.0 mi West 15.0 mph 19.6 mph N/A   Clear
5:57 PM 43.0 °F 36.8 °F 19.9 °F 40% 29.99 in 10.0 mi West 11.5 mph - N/A   Clear
6:57 PM 42.1 °F 37.1 °F 19.9 °F 41% 29.99 in 10.0 mi WNW 8.1 mph - N/A   Clear
7:57 PM 39.0 °F 34.8 °F 19.0 °F 45% 30.01 in 10.0 mi West 5.8 mph - N/A   Clear
8:57 PM 39.0 °F 36.8 °F 19.0 °F 45% 30.02 in 10.0 mi West 3.5 mph - N/A   Clear
9:57 PM 37.9 °F 34.4 °F 19.0 °F 47% 30.05 in 10.0 mi West 4.6 mph - N/A   Clear
10:57 PM 36.0 °F 33.3 °F 19.9 °F 52% 30.06 in 10.0 mi WSW 3.5 mph - N/A   Clear
11:57 PM 35.1 °F 31.0 °F 21.9 °F 59% 30.05 in 10.0 mi South 4.6 mph - N/A   Clear